GW1109 Weather Reports


time (UTC)temp
C
wind
direction
speed
KPH
gust
KPH
rain 1hr
cm
rain 24hr
cm
rain mn
cm
humidity
%
barometer
mb
20260507023050 17 236 8.0 19.3 0.03 1.02 1.02 100 1004.0
20260507021547 17 215 8.0 19.3 0.03 1.02 1.02 100 1004.2
20260507020105 17 262 8.0 25.7 0.00 0.99 0.99 100 1004.2
20260507014553 17 236 9.7 20.9 0.00 0.99 0.99 100 1004.3
20260507013054 17 181 8.0 27.4 0.00 0.99 0.99 100 1004.2
20260507011547 17 216 9.7 24.1 0.00 0.99 0.99 100 1004.2
20260507010050 17 167 11.3 24.1 0.00 0.99 0.99 100 1004.4
20260507004553 17 222 11.3 24.1 0.00 0.99 0.99 100 1004.5
20260507003049 17 216 9.7 27.4 0.00 0.99 0.99 100 1004.4
20260507001545 17 218 9.7 25.7 0.00 0.99 0.99 100 1004.3
20260507000050 17 212 8.0 27.4 0.00 0.99 0.99 100 1004.1
20260506234551 17 209 12.9 32.2 0.00 0.99 0.99 100 1004.3
20260506233101 17 214 9.7 35.4 0.00 0.99 0.99 100 1004.4
20260506231553 17 213 14.5 27.4 0.00 0.99 0.99 100 1004.3
20260506230049 17 188 12.9 27.4 0.00 0.99 0.99 100 1004.4
20260506224541 17 178 11.3 24.1 0.00 0.99 0.99 100 1004.5
20260506223045 17 174 11.3 27.4 0.00 0.99 0.99 100 1004.7
20260506221549 17 209 14.5 35.4 0.03 0.99 0.99 100 1004.7
20260506220049 18 207 14.5 30.6 0.03 0.99 0.99 100 1004.8
20260506214550 18 199 9.7 20.9 0.05 0.99 0.99 100 1005.0
20260506213057 18 169 9.7 27.4 0.08 0.97 0.97 100 1005.0
20260506211543 18 139 8.0 20.9 0.15 0.97 0.97 100 1005.1
20260506210048 18 105 6.4 16.1 0.20 0.97 0.97 100 1005.2
20260506204548 18 187 4.8 11.3 0.20 0.94 0.94 100 1005.6
20260506203047 18 163 4.8 12.9 0.18 0.89 0.89 100 1005.6
20260506201546 18 143 3.2 12.9 0.15 0.81 0.81 100 1005.5
20260506200052 18 182 1.6 11.3 0.23 0.76 0.76 100 1005.3
20260506194541 18 199 3.2 12.9 0.28 0.74 0.74 99 1005.7
20260506193046 17 205 4.8 16.1 0.36 0.71 0.71 98 1005.8
20260506191546 17 174 4.8 14.5 0.53 0.66 0.66 97 1006.3
20260506190047 17 215 4.8 14.5 0.53 0.53 0.53 95 1006.4
20260506184552 17 225 6.4 20.9 0.43 0.43 0.43 93 1006.2
20260506183054 17 250 9.7 24.1 0.36 0.36 0.36 89 1006.7
20260506181615 17 230 1.6 8.0 0.13 0.13 0.13 80 1006.5
20260506180048 18 221 6.4 12.9 0.00 0.00 0.00 67 1006.1
20260506174545 19 189 6.4 24.1 0.00 0.00 0.00 62 1005.8
20260506173058 20 202 9.7 24.1 0.00 0.00 0.00 61 1006.0
20260506171544 20 215 12.9 33.8 0.00 0.00 0.00 58 1006.1
20260506170049 20 237 8.0 24.1 0.00 0.00 0.00 59 1006.2
20260506164548 20 211 14.5 29.0 0.00 0.00 0.00 60 1006.6
20260506163047 20 215 11.3 24.1 0.00 0.00 0.00 61 1006.9
20260506161548 20 217 9.7 27.4 0.00 0.00 0.00 62 1007.2
20260506160052 19 217 12.9 24.1 0.00 0.00 0.00 63 1007.5
20260506154552 20 188 11.3 24.1 0.00 0.00 0.00 63 1007.9
20260506153104 18 240 11.3 32.2 0.00 0.00 0.00 67 1008.1
20260506151544 18 221 6.4 29.0 0.00 0.00 0.00 66 1007.7
20260506150059 18 229 12.9 24.1 0.00 0.00 0.00 66 1008.0
20260506144555 18 217 11.3 27.4 0.00 0.00 0.00 67 1007.8
20260506143045 18 226 14.5 27.4 0.00 0.00 0.00 68 1007.9
20260506141543 18 206 11.3 19.3 0.00 0.00 0.00 69 1007.7
20260506140041 18 210 6.4 16.1 0.00 0.00 0.00 71 1007.9
20260506134540 17 227 9.7 17.7 0.00 0.00 0.00 72 1008.1
20260506133042 17 228 8.0 17.7 0.00 0.00 0.00 72 1008.2
20260506131553 17 229 8.0 20.9 0.00 0.00 0.00 72 1008.1
20260506130047 17 215 8.0 17.7 0.00 0.00 0.00 73 1008.2
20260506124546 16 271 8.0 22.5 0.00 0.00 0.00 74 1008.1
20260506123041 16 213 8.0 24.1 0.00 0.00 0.00 73 1008.3
20260506121542 16 209 8.0 20.9 0.00 0.00 0.00 74 1008.1
20260506120048 16 228 9.7 19.3 0.00 0.00 0.00 75 1008.6
20260506114547 16 200 9.7 20.9 0.00 0.00 0.00 75 1008.7
20260506113046 15 222 8.0 17.7 0.00 0.00 0.00 76 1008.9
20260506111545 15 227 8.0 17.7 0.00 0.00 0.00 76 1009.0
20260506110042 15 216 9.7 20.9 0.00 0.00 0.00 76 1008.8
20260506104541 15 247 8.0 14.5 0.00 0.00 0.00 76 1008.9
20260506103053 15 232 8.0 16.1 0.00 0.00 0.00 76 1009.0
20260506101547 15 221 8.0 16.1 0.00 0.00 0.00 76 1008.6
20260506100045 15 197 6.4 17.7 0.00 0.00 0.00 74 1008.7
20260506094545 15 224 8.0 14.5 0.00 0.00 0.00 74 1008.7
20260506093041 14 189 6.4 11.3 0.00 0.00 0.00 73 1008.6
20260506091550 14 225 6.4 14.5 0.00 0.00 0.00 73 1008.6
20260506090056 15 218 6.4 16.1 0.00 0.00 0.00 71 1008.4
20260506084551 15 229 8.0 17.7 0.00 0.00 0.00 70 1008.6
20260506083047 15 219 4.8 17.7 0.00 0.00 0.00 70 1008.3
20260506081546 15 207 6.4 12.9 0.00 0.00 0.00 69 1008.2
20260506073048 15 269 3.2 9.7 0.00 0.00 0.00 67 1008.4
20260506071549 15 215 6.4 11.3 0.00 0.00 0.00 66 1008.2
20260506061544 16 176 4.8 14.5 0.00 0.00 0.00 64 1007.9
20260506044552 17 153 9.7 17.7 0.00 0.00 0.00 62 1008.2
20260506043047 17 192 9.7 19.3 0.00 0.00 0.00 61 1008.2
20260506041547 17 198 6.4 16.1 0.00 0.00 0.00 62 1008.1
20260506040047 17 222 6.4 14.5 0.00 0.00 0.00 62 1008.1
20260506034558 17 212 6.4 12.9 0.00 0.00 0.00 65 1008.1
20260506033049 17 202 1.6 6.4 0.00 0.00 0.00 67 1008.3
20260506031547 17 178 1.6 9.7 0.00 0.00 0.00 67 1008.2
20260506030046 17 221 3.2 8.0 0.00 0.00 0.00 66 1008.2
20260506024605 17 173 4.8 9.7 0.00 0.00 0.00 65 1008.0